星链-35733(STARLINK-35733)

导读

STARLINK-35733是美国于2025年10月28日发射的星链系列卫星,属于SpaceX公司打造的星链互联网卫星星座的一员。星链计划旨在构建全球卫星互联网,为全球偏远、欠发达地区以及海洋、航空等场景提供高速互联网接入服务,该卫星的入轨将进一步完善星链星座的全球覆盖能力,提升网络服务的容量与稳定性。

Basic Information
目录编号:
66224
目录名称:
STARLINK-35733
国际标识:
2025-244U
轨道中心:
EARTH
卫星名称:
星链-35733
卫星全名:
星链-35733(STARLINK-35733)
卫星状态:
在轨 (已飞行311 天)
发射日期:
2025-10-28 UTC
国别 :
美国 (US)
星等 :
--
Orbit Information
数据来源 国际轨道数据
星历时间: 2026-09-04T00:07:36+0800
13小时前
查看轨道信息
半长轴: 6840.822km
偏心率: 0.0001186
轨道倾角: 53.158°
近地点辐角 92.145°
升交点赤经 122.191°
平近点角 267.969°
近地点: 461.873km
远地点: 463.497km
周期: 93.847分钟
每日圈数: 15.344062
Detailed Information
固有亮度:
5
最大亮度:
2.5
卫星平台:
Starlink V1.0
覆盖范围:
全球
运营商:
太空探索技术公司
运营商所在国:
美国
制造商(研发单位):
太空探索技术公司
制造商所在国:
美国
使用方式:
暂无
Satellite Introduction
Starlink 计划是 SpaceX 推出的全球卫星互联网项目,通过发射低轨道卫星,为全球尤其是偏远地区提供高速、低延迟的互联网服务。自 2019 年起,Starlink 已部署数千颗卫星,旨在缩小全球数字鸿沟,推动互联网普及。该项目还为军事、航空等行业提供通信支持,带来广泛经济效益。
2D Orbit Map
3D Orbit Map
Orbit Altitude Analysis Chart
Orbit Inclination Analysis Chart
Orbit Comprehensive Analysis Chart
View Comprehensive Chart
Conjunction Data List
Event ID Objects TCA Miss Dist (km) Collision Risk Probability Collision Risk Index (CRI) Action
CDM_260904-105805-504506-622423
2026-09-04T
10:58:44+0000
0.479 km
远距离
2.243591E-4 高风险 0.82
CDM_260904-124306-462706-622422
OBJECT C (64627)
2026-09-04T
12:43:36+0000
1.342 km
极远距离
9.336211E-6 低风险 0.54
CDM_260904-224506-323806-622422
2026-09-04T
22:45:37+0000
1.998 km
极远距离
1.726114E-6 低风险 0.4
CDM_260904-045405-339706-622421
2026-09-04T
04:54:13+0000
2.955 km
极远距离
9.609621E-7 极低风险 0.35
CDM_260903-123506-223206-622421
2026-09-03T
12:35:44+0000
2.842 km
极远距离
3.800021E-7 极低风险 0.27